N6OIM Weather Reports


Display with metric or nautical units.
time (UTC)temp
F
wind
direction
speed
MPH
gust
MPH
rain 1hr
in
rain 24hr
in
rain mn
in
humidity
%
barometer
mb
20260906221819 86 267 0.0 0.0 0.00 0.00 0.00 23 1011.4
20260906221332 86 110 0.0 0.0 0.00 0.00 0.00 23 1011.4
20260906220826 86 229 0.0 0.0 0.00 0.00 0.00 24 1011.4
20260906220335 85 184 0.0 0.0 0.00 0.00 0.00 25 1011.6
20260906215824 85 274 0.0 0.0 0.00 0.00 0.00 25 1011.5
20260906215333 85 211 0.0 0.0 0.00 0.00 0.00 25 1011.4
20260906214820 84 254 0.0 0.0 0.00 0.00 0.00 25 1011.5
20260906214332 84 279 0.0 0.0 0.00 0.00 0.00 25 1011.5
20260906213819 84 269 0.0 0.0 0.00 0.00 0.00 25 1011.7
20260906213328 84 227 0.0 0.0 0.00 0.00 0.00 25 1011.7
20260906212816 84 265 0.0 0.0 0.00 0.00 0.00 25 1011.7
20260906212329 84 309 0.0 0.0 0.00 0.00 0.00 25 1011.6
20260906211836 84 245 0.0 0.0 0.00 0.00 0.00 26 1011.6
20260906211325 84 267 0.0 0.0 0.00 0.00 0.00 28 1011.7
20260906210815 83 267 0.0 0.0 0.00 0.00 0.00 27 1011.8
20260906210327 83 207 0.0 0.0 0.00 0.00 0.00 27 1011.8
20260906205834 83 153 0.0 0.0 0.00 0.00 0.00 27 1011.8
20260906205324 83 271 0.0 0.0 0.00 0.00 0.00 27 1011.7
20260906204832 83 242 0.0 0.0 0.00 0.00 0.00 28 1011.7
20260906204320 83 146 0.0 0.0 0.00 0.00 0.00 27 1011.8
20260906203813 82 108 0.0 0.0 0.00 0.00 0.00 28 1011.8
20260906203326 82 213 0.0 0.0 0.00 0.00 0.00 28 1011.8
20260906202835 82 279 0.0 0.0 0.00 0.00 0.00 31 1011.8
20260906202324 81 117 0.0 0.0 0.00 0.00 0.00 31 1011.8
20260906201832 81 263 0.0 0.0 0.00 0.00 0.00 32 1011.8
20260906201320 81 265 0.0 0.0 0.00 0.00 0.00 31 1011.9
20260906200827 80 310 0.0 0.0 0.00 0.00 0.00 33 1011.9
20260906200319 80 214 0.0 0.0 0.00 0.00 0.00 33 1011.9
20260906195827 80 270 0.0 0.0 0.00 0.00 0.00 35 1012.1
20260906195320 79 252 0.0 0.0 0.00 0.00 0.00 34 1012.1
20260906194832 79 259 0.0 0.0 0.00 0.00 0.00 34 1012.1
20260906194320 79 274 0.0 0.0 0.00 0.00 0.00 36 1012.2
20260906193828 79 133 0.0 0.0 0.00 0.00 0.00 35 1012.1
20260906193320 79 171 0.0 0.0 0.00 0.00 0.00 37 1012.3
20260906192828 78 275 0.0 0.0 0.00 0.00 0.00 37 1012.3
20260906192317 78 208 0.0 0.0 0.00 0.00 0.00 39 1012.3
20260906191824 78 252 0.0 0.0 0.00 0.00 0.00 40 1012.5
20260906191320 77 149 0.0 0.0 0.00 0.00 0.00 42 1012.5
20260906190828 77 210 0.0 0.0 0.00 0.00 0.00 41 1012.7
20260906190317 77 225 0.0 0.0 0.00 0.00 0.00 41 1012.7
20260906185825 77 229 0.0 0.0 0.00 0.00 0.00 41 1012.7
20260906185334 77 228 0.0 0.0 0.00 0.00 0.00 42 1012.7
20260906184821 76 226 0.0 0.0 0.00 0.00 0.00 42 1012.6
20260906184330 76 161 0.0 0.0 0.00 0.00 0.00 42 1012.6
20260906183822 76 167 0.0 0.0 0.00 0.00 0.00 43 1012.6
20260906183331 76 199 0.0 0.0 0.00 0.00 0.00 45 1012.5
20260906182822 75 207 0.0 0.0 0.00 0.00 0.00 44 1012.7
20260906182331 75 205 0.0 0.0 0.00 0.00 0.00 44 1012.7
20260906181819 75 132 0.0 0.0 0.00 0.00 0.00 45 1012.7
20260906181330 74 271 0.0 0.0 0.00 0.00 0.00 46 1012.8
20260906180818 74 217 0.0 0.0 0.00 0.00 0.00 46 1012.7
20260906180327 74 225 0.0 0.0 0.00 0.00 0.00 48 1013.0
20260906175819 73 210 0.0 0.0 0.00 0.00 0.00 47 1012.9
20260906175333 73 146 0.0 0.0 0.00 0.00 0.00 49 1012.8
20260906174824 72 184 0.0 0.0 0.00 0.00 0.00 49 1013.0
20260906174317 72 195 0.0 0.0 0.00 0.00 0.00 51 1013.0
20260906173824 72 141 0.0 0.0 0.00 0.00 0.00 51 1012.9
20260906173333 71 271 0.0 0.0 0.00 0.00 0.00 51 1012.9
20260906172822 71 188 0.0 0.0 0.00 0.00 0.00 52 1012.9
20260906172333 71 158 0.0 0.0 0.00 0.00 0.00 52 1012.9
20260906171820 71 159 0.0 0.0 0.00 0.00 0.00 53 1012.9
20260906171328 71 146 0.0 0.0 0.00 0.00 0.00 53 1012.9
20260906170817 71 163 0.0 0.0 0.00 0.00 0.00 54 1012.9
20260906170326 70 184 0.0 0.0 0.00 0.00 0.00 54 1012.9
20260906165819 70 188 0.0 0.0 0.00 0.00 0.00 55 1012.9
20260906165328 70 130 0.0 0.0 0.00 0.00 0.00 55 1013.0
20260906164817 70 150 0.0 0.0 0.00 0.00 0.00 54 1012.9
20260906164327 70 144 0.0 0.0 0.00 0.00 0.00 54 1012.8
20260906163835 69 215 0.0 0.0 0.00 0.00 0.00 54 1012.9
20260906163323 69 115 0.0 0.0 0.00 0.00 0.00 54 1012.9
20260906162830 69 123 0.0 0.0 0.00 0.00 0.00 55 1013.0
20260906162319 69 122 0.0 0.0 0.00 0.00 0.00 55 1013.0
20260906161827 68 133 0.0 0.0 0.00 0.00 0.00 55 1013.0
20260906161320 68 150 0.0 0.0 0.00 0.00 0.00 56 1013.0
20260906160828 67 157 0.0 0.0 0.00 0.00 0.00 58 1013.0
20260906160318 66 160 0.0 0.0 0.00 0.00 0.00 59 1012.9
20260906155827 66 140 0.0 0.0 0.00 0.00 0.00 62 1013.0
20260906155316 65 140 0.0 0.0 0.00 0.00 0.00 64 1013.0
20260906154827 65 140 0.0 0.0 0.00 0.00 0.00 65 1012.9
20260906154336 65 140 0.0 0.0 0.00 0.00 0.00 67 1013.0
20260906153824 64 140 0.0 0.0 0.00 0.00 0.00 68 1012.9
20260906153317 64 140 0.0 0.0 0.00 0.00 0.00 68 1012.9
20260906152825 64 140 0.0 0.0 0.00 0.00 0.00 69 1013.0
20260906152317 63 139 0.0 0.0 0.00 0.00 0.00 70 1013.1
20260906151825 63 141 0.0 0.0 0.00 0.00 0.00 72 1013.1
20260906151335 63 141 0.0 0.0 0.00 0.00 0.00 73 1013.1
20260906150824 62 138 0.0 0.0 0.00 0.00 0.00 74 1013.2
20260906150336 62 126 0.0 0.0 0.00 0.00 0.00 75 1013.2
20260906145824 61 169 0.0 0.0 0.00 0.00 0.00 75 1013.1
20260906145333 60 170 0.0 0.0 0.00 0.00 0.00 76 1013.1
20260906144825 60 170 0.0 0.0 0.00 0.00 0.00 77 1013.1
20260906144335 59 192 0.0 0.0 0.00 0.00 0.00 79 1012.9
20260906143822 58 205 0.0 0.0 0.00 0.00 0.00 79 1012.8
20260906143330 58 206 0.0 0.0 0.00 0.00 0.00 79 1012.8
20260906142819 58 206 0.0 0.0 0.00 0.00 0.00 78 1012.8
20260906142330 57 206 0.0 0.0 0.00 0.00 0.00 77 1012.7
20260906141819 57 207 0.0 0.0 0.00 0.00 0.00 77 1012.7
20260906141329 57 206 0.0 0.0 0.00 0.00 0.00 76 1012.7
20260906140818 57 207 0.0 0.0 0.00 0.00 0.00 75 1012.7
20260906140332 57 207 0.0 0.0 0.00 0.00 0.00 75 1012.6
20260906135821 57 207 0.0 0.0 0.00 0.00 0.00 75 1012.5
20260906135334 57 207 0.0 0.0 0.00 0.00 0.00 75 1012.4
20260906134823 57 206 0.0 0.0 0.00 0.00 0.00 75 1012.3
20260906134332 57 207 0.0 0.0 0.00 0.00 0.00 75 1012.2
20260906133821 57 207 0.0 0.0 0.00 0.00 0.00 74 1012.2
20260906133331 57 206 0.0 0.0 0.00 0.00 0.00 74 1012.2
20260906132820 57 207 0.0 0.0 0.00 0.00 0.00 74 1012.2
20260906132329 57 207 0.0 0.0 0.00 0.00 0.00 73 1012.1
20260906131822 57 207 0.0 0.0 0.00 0.00 0.00 73 1012.1
20260906131332 57 207 0.0 0.0 0.00 0.00 0.00 73 1012.1
20260906130821 57 207 0.0 0.0 0.00 0.00 0.00 73 1012.1
20260906130331 57 207 0.0 0.0 0.00 0.00 0.00 72 1012.1
20260906125823 57 207 0.0 0.0 0.00 0.00 0.00 72 1012.1
20260906125336 57 207 0.0 0.0 0.00 0.00 0.00 72 1012.0
20260906124824 57 206 0.0 0.0 0.00 0.00 0.00 72 1012.0
20260906124334 57 207 0.0 0.0 0.00 0.00 0.00 71 1012.0
20260906123827 57 207 0.0 0.0 0.00 0.00 0.00 71 1012.0
20260906123336 57 207 0.0 0.0 0.00 0.00 0.00 71 1012.0
20260906122824 57 206 0.0 0.0 0.00 0.00 0.00 71 1012.0
20260906122336 57 207 0.0 0.0 0.00 0.00 0.00 71 1012.1
20260906121823 57 207 0.0 0.0 0.00 0.00 0.00 70 1012.0
20260906121334 57 206 0.0 0.0 0.00 0.00 0.00 70 1012.0
20260906120822 58 206 0.0 0.0 0.00 0.00 0.00 70 1012.1
20260906120335 58 207 0.0 0.0 0.00 0.00 0.00 69 1012.0
20260906115824 58 207 0.0 0.0 0.00 0.00 0.00 68 1012.0
20260906115320 58 207 0.0 0.0 0.00 0.00 0.00 68 1012.0
20260906114828 58 206 0.0 0.0 0.00 0.00 0.00 67 1012.0
20260906114318 58 207 0.0 0.0 0.00 0.00 0.00 66 1012.0
20260906113827 59 207 0.0 0.0 0.00 0.00 0.00 67 1012.0
20260906113336 59 206 0.0 0.0 0.00 0.00 0.00 65 1012.1
20260906112824 59 207 0.0 0.0 0.00 0.00 0.00 65 1012.1
20260906112317 59 207 0.0 0.0 0.00 0.00 0.00 64 1012.1
20260906111826 59 207 0.0 0.0 0.00 0.00 0.00 64 1012.1
20260906111319 60 207 0.0 0.0 0.00 0.00 0.00 64 1012.0
20260906110829 60 206 0.0 0.0 0.00 0.00 0.00 64 1011.9
20260906110319 60 207 0.0 0.0 0.00 0.00 0.00 64 1012.0
20260906105827 60 207 0.0 0.0 0.00 0.00 0.00 64 1011.9
20260906105336 60 207 0.0 0.0 0.00 0.00 0.00 64 1011.9
20260906104824 60 207 0.0 0.0 0.00 0.00 0.00 65 1011.9
20260906104333 60 206 0.0 0.0 0.00 0.00 0.00 65 1011.8
20260906103822 60 207 0.0 0.0 0.00 0.00 0.00 64 1011.9
20260906103330 61 207 0.0 0.0 0.00 0.00 0.00 64 1011.9
20260906102822 61 206 0.0 0.0 0.00 0.00 0.00 64 1011.8
20260906102330 61 207 0.0 0.0 0.00 0.00 0.00 64 1011.7
20260906101818 61 207 0.0 0.0 0.00 0.00 0.00 64 1011.8
20260906101328 61 206 0.0 0.0 0.00 0.00 0.00 64 1011.8
20260906100816 61 207 0.0 0.0 0.00 0.00 0.00 63 1011.7
20260906100326 61 207 0.0 0.0 0.00 0.00 0.00 62 1011.7
20260906095835 61 206 0.0 0.0 0.00 0.00 0.00 62 1011.8
20260906095324 61 207 0.0 0.0 0.00 0.00 0.00 62 1011.8
20260906094833 61 207 0.0 0.0 0.00 0.00 0.00 61 1011.8
20260906094329 61 207 0.0 0.0 0.00 0.00 0.00 61 1011.9
20260906093836 61 207 0.0 0.0 0.00 0.00 0.00 60 1011.9
20260906093324 62 263 0.0 0.0 0.00 0.00 0.00 60 1012.0
20260906092832 62 263 0.0 0.0 0.00 0.00 0.00 59 1012.0
20260906092321 62 263 0.0 0.0 0.00 0.00 0.00 59 1011.9
20260906091813 62 263 0.0 0.0 0.00 0.00 0.00 58 1011.9
20260906091327 62 263 0.0 0.0 0.00 0.00 0.00 58 1011.8
20260906090836 62 263 0.0 0.0 0.00 0.00 0.00 57 1011.8
20260906090326 62 263 0.0 0.0 0.00 0.00 0.00 57 1011.9
20260906085818 62 263 0.0 0.0 0.00 0.00 0.00 57 1011.9
20260906085327 62 263 0.0 0.0 0.00 0.00 0.00 57 1012.0
20260906084834 62 263 0.0 0.0 0.00 0.00 0.00 56 1012.0
20260906084324 62 263 0.0 0.0 0.00 0.00 0.00 56 1012.0
20260906083833 62 263 0.0 0.0 0.00 0.00 0.00 56 1012.0
20260906083321 62 263 0.0 0.0 0.00 0.00 0.00 55 1012.1
20260906082830 63 263 0.0 0.0 0.00 0.00 0.00 55 1012.1
20260906082319 63 263 0.0 0.0 0.00 0.00 0.00 55 1012.0
20260906081829 63 263 0.0 0.0 0.00 0.00 0.00 54 1012.0
20260906081323 63 263 0.0 0.0 0.00 0.00 0.00 54 1012.0
20260906080831 63 263 0.0 0.0 0.00 0.00 0.00 54 1012.0
20260906080319 64 263 0.0 0.0 0.00 0.00 0.00 53 1012.0
20260906075828 64 263 0.0 0.0 0.00 0.00 0.00 52 1012.0
20260906075317 64 263 0.0 0.0 0.00 0.00 0.00 52 1012.0
20260906074824 64 263 0.0 0.0 0.00 0.00 0.00 52 1012.0
20260906074334 65 263 0.0 0.0 0.00 0.00 0.00 51 1012.0
20260906073822 65 263 0.0 0.0 0.00 0.00 0.00 51 1012.1
20260906073332 65 263 0.0 0.0 0.00 0.00 0.00 50 1012.1
20260906072824 65 263 0.0 0.0 0.00 0.00 0.00 50 1012.1
20260906072332 66 263 0.0 0.0 0.00 0.00 0.00 49 1012.2
20260906071820 66 263 0.0 0.0 0.00 0.00 0.00 49 1012.1
20260906071331 66 263 0.0 0.0 0.00 0.00 0.00 49 1012.1
20260906070823 67 263 0.0 0.0 0.00 0.00 0.00 48 1012.0
20260906070316 67 263 0.0 0.0 0.00 0.00 0.00 48 1012.0
20260906065827 67 263 0.0 0.0 0.00 0.00 0.00 47 1012.0
20260906065317 67 263 0.0 0.0 0.00 0.00 0.00 46 1012.0
20260906064832 68 263 0.0 0.0 0.00 0.00 0.00 46 1012.0
20260906064321 68 263 0.0 0.0 0.00 0.00 0.00 46 1012.0
20260906063830 68 263 0.0 0.0 0.00 0.00 0.00 46 1012.0
20260906063319 68 263 0.0 0.0 0.00 0.00 0.00 46 1012.0
20260906062828 69 263 0.0 0.0 0.00 0.00 0.00 45 1012.0
20260906062317 69 263 0.0 0.0 0.00 0.00 0.00 45 1012.0
20260906061825 69 263 0.0 0.0 0.00 0.00 0.00 45 1012.0
20260906061335 69 263 0.0 0.0 0.00 0.00 0.00 44 1012.0
20260906060822 69 263 0.0 0.0 0.00 0.00 0.00 43 1012.1
20260906060335 70 263 0.0 0.0 0.00 0.00 0.00 42 1012.1
20260906055823 70 263 0.0 0.0 0.00 0.00 0.00 42 1012.1
20260906055333 70 263 0.0 0.0 0.00 0.00 0.00 41 1012.1
20260906054821 70 263 0.0 0.0 0.00 0.00 0.00 42 1012.0
20260906054330 70 263 0.0 0.0 0.00 0.00 0.00 43 1012.0
20260906053816 70 263 0.0 0.0 0.00 0.00 0.00 43 1012.1
20260906053325 71 263 0.0 0.0 0.00 0.00 0.00 43 1012.1
20260906052816 71 263 0.0 0.0 0.00 0.00 0.00 43 1012.0
20260906052325 71 263 0.0 0.0 0.00 0.00 0.00 43 1012.0
20260906051822 71 263 0.0 0.0 0.00 0.00 0.00 43 1012.0
20260906051332 71 263 0.0 0.0 0.00 0.00 0.00 43 1012.0
20260906050821 72 263 0.0 0.0 0.00 0.00 0.00 43 1011.9
20260906050329 72 263 0.0 0.0 0.00 0.00 0.00 43 1011.9
20260906045817 72 263 0.0 0.0 0.00 0.00 0.00 43 1011.8
20260906045327 72 265 0.0 0.0 0.00 0.00 0.00 43 1011.7
20260906044816 73 266 0.0 0.0 0.00 0.00 0.00 43 1011.7
20260906044329 73 267 0.0 0.0 0.00 0.00 0.00 43 1011.8
20260906043826 73 267 0.0 0.0 0.00 0.00 0.00 43 1011.8
20260906043336 73 267 0.0 0.0 0.00 0.00 0.00 43 1011.7
20260906042826 73 267 0.0 0.0 0.00 0.00 0.00 43 1011.7
20260906042334 74 267 0.0 0.0 0.00 0.00 0.00 42 1011.6
20260906041822 74 267 0.0 0.0 0.00 0.00 0.00 42 1011.6
20260906041335 74 266 0.0 0.0 0.00 0.00 0.00 42 1011.6
20260906040824 74 259 0.0 0.0 0.00 0.00 0.00 42 1011.5
20260906040333 74 238 0.0 0.0 0.00 0.00 0.00 42 1011.5
20260906035825 75 264 0.0 0.0 0.00 0.00 0.00 42 1011.4
20260906035318 75 263 0.0 0.0 0.00 0.00 0.00 41 1011.3
20260906034827 75 263 0.0 0.0 0.00 0.00 0.00 41 1011.3
20260906034336 75 265 0.0 0.0 0.00 0.00 0.00 41 1011.4
20260906033824 76 267 0.0 0.0 0.00 0.00 0.00 40 1011.3
20260906033333 76 265 0.0 0.0 0.00 0.00 0.00 40 1011.3
20260906032821 76 267 0.0 0.0 0.00 0.00 0.00 38 1011.2
20260906032329 77 267 0.0 0.0 0.00 0.00 0.00 37 1011.2
20260906031836 77 267 0.0 0.0 0.00 0.00 0.00 36 1011.2
20260906031325 78 267 0.0 0.0 0.00 0.00 0.00 35 1011.1
20260906030816 78 267 0.0 0.0 0.00 0.00 0.00 33 1011.1
20260906030326 78 267 0.0 0.0 0.00 0.00 0.00 33 1011.1
20260906025835 79 267 0.0 0.0 0.00 0.00 0.00 33 1011.0
20260906025325 79 267 0.0 0.0 0.00 0.00 0.00 32 1011.0
20260906024834 80 267 0.0 0.0 0.00 0.00 0.00 32 1011.0
20260906024322 80 267 0.0 0.0 0.00 0.00 0.00 32 1010.9
20260906023830 80 267 0.0 0.0 0.00 0.00 0.00 31 1010.9
20260906023319 80 267 0.0 0.0 0.00 0.00 0.00 31 1010.8
20260906022831 81 267 0.0 0.0 0.00 0.00 0.00 31 1010.9
20260906022324 81 267 0.0 0.0 0.00 0.00 0.00 30 1010.9
20260906021831 81 267 0.0 0.0 0.00 0.00 0.00 30 1010.9
20260906021320 82 267 0.0 0.0 0.00 0.00 0.00 30 1010.9
20260906020831 82 267 0.0 0.0 0.00 0.00 0.00 30 1011.1
20260906020321 82 267 0.0 0.0 0.00 0.00 0.00 30 1011.0
20260906015830 82 267 0.0 0.0 0.00 0.00 0.00 30 1010.9
20260906015319 83 267 0.0 0.0 0.00 0.00 0.00 30 1010.9
20260906014827 83 269 0.0 0.0 0.00 0.00 0.00 31 1010.9
20260906014320 83 269 0.0 0.0 0.00 0.00 0.00 31 1011.0
20260906013829 83 269 0.0 0.0 0.00 0.00 0.00 31 1011.0
20260906013318 84 269 0.0 0.0 0.00 0.00 0.00 31 1010.9
20260906012827 84 248 0.0 0.0 0.00 0.00 0.00 32 1010.9
20260906012316 84 248 0.0 0.0 0.00 0.00 0.00 32 1010.9
20260906011828 84 248 0.0 0.0 0.00 0.00 0.00 32 1011.0
20260906011318 85 227 0.0 0.0 0.00 0.00 0.00 32 1011.0
20260906010826 85 228 0.0 0.0 0.00 0.00 0.00 31 1011.0
20260906010335 85 227 0.0 0.0 0.00 0.00 0.00 31 1011.0
20260906005827 85 227 0.0 0.0 0.00 0.00 0.00 31 1011.0
20260906005315 86 228 0.0 0.0 0.00 0.00 0.00 30 1011.1
20260906004827 86 238 0.0 0.0 0.00 0.00 0.00 29 1011.1
20260906004317 86 151 0.0 0.0 0.00 0.00 0.00 30 1011.0
20260906003826 86 148 0.0 0.0 0.00 0.00 0.00 30 1011.0
20260906003335 86 148 0.0 0.0 0.00 0.00 0.00 30 1011.0
20260906002823 86 196 0.0 0.0 0.00 0.00 0.00 29 1010.9
20260906002332 86 177 0.0 0.0 0.00 0.00 0.00 29 1010.9
20260906001820 86 229 0.0 0.0 0.00 0.00 0.00 30 1011.0
20260906001333 86 225 0.0 0.0 0.00 0.00 0.00 30 1011.0
20260906000821 86 256 0.0 0.0 0.00 0.00 0.00 30 1011.0
20260906000329 86 256 0.0 0.0 0.00 0.00 0.00 30 1011.0
20260905235817 85 213 0.0 0.0 0.00 0.00 0.00 30 1011.0
20260905235329 86 263 0.0 0.0 0.00 0.00 0.00 30 1011.1
20260905234819 86 219 0.0 0.0 0.00 0.00 0.00 30 1011.1
20260905234328 86 269 0.0 0.0 0.00 0.00 0.00 30 1011.1
20260905233817 86 128 0.0 0.0 0.00 0.00 0.00 30 1011.2
20260905233326 86 128 0.0 0.0 0.00 0.00 0.00 29 1011.1
20260905232818 86 127 0.0 0.0 0.00 0.00 0.00 29 1011.2
20260905232328 86 128 0.0 0.0 0.00 0.00 0.00 28 1011.3
20260905231836 86 194 0.0 0.0 0.00 0.00 0.00 29 1011.3
20260905231325 86 313 0.0 0.0 0.00 0.00 0.00 29 1011.3
20260905230834 85 165 0.0 0.0 0.00 0.00 0.00 30 1011.3
20260905230323 85 166 0.0 0.0 0.00 0.00 0.00 30 1011.2
20260905225832 85 166 0.0 0.0 0.00 0.00 0.00 30 1011.3
20260905225325 85 313 0.0 0.0 0.00 0.00 0.00 31 1011.5
20260905224818 85 295 0.0 0.0 0.00 0.00 0.00 31 1011.4
20260905224329 85 277 0.0 0.0 0.00 0.00 0.00 30 1011.6
20260905223817 85 182 0.0 0.0 0.00 0.00 0.00 31 1011.6
20260905223326 85 153 0.0 0.0 0.00 0.00 0.00 32 1011.6
20260905222816 85 152 0.0 0.0 0.00 0.00 0.00 31 1011.7